sat.trackr.live / text

‹ back to catalog

STARLINK-1300

NORAD 45374 · 2020-019Q

PAYLOAD ACTIVE UNKNOWN

§ Identity

Operator
Country
US
Launch date
2020-03-18
Launch site
AFETR
Launch vehicle
Mass (kg)
RCS (m²)

Purposes: comms

External: N2YO · Heavens-Above · Gunter

§ Orbital elements

Epoch: 2026-09-12T01:25:06.892320Z

Period
93.26 min
Inclination
53.1557°
Eccentricity
0.0002090
Mean motion
15.44075067 rev/d
Perigee alt
432.7 km
Apogee alt
435.5 km
Semi-major
6,812.2 km
B*
1.5752e-3
RAAN
12.0309°
Arg perigee
29.3076°
Mean anomaly
330.8048°
Rev number
35,839

§ Raw data

STARLINK-13001 45374U 20019Q   26255.05910755  .00073393  00000+0  15752-2 0  99932 45374  53.1557  12.0309 0002090  29.3076 330.8048 15.44075067358397

JSON: /api/v1/satellites/45374 · /tle

For live sub-satellite position, see the globe view (requires WebGL).

§ Visibility from observer

Set your observer location to see the next 7 days of passes ≥ 10°. The values pass through the URL so the page stays shareable.

No JS? Fill the form by hand. The geolocation button needs JavaScript.